AirNav   Pilot Hours Calculator
 
 433 users online  

C24 Mineral County Memorial Airport
Creede, Colorado, USA

GOING TO CREEDE?


FAA INFORMATION EFFECTIVE 03 DECEMBER 2020

Location

FAA Identifier: C24
Lat/Long: 37-49-19.8000N 106-55-47.6000W
37-49.330000N 106-55.793333W
37.8221667,-106.9298889
(estimated)
Elevation: 8680 ft. / 2646 m (estimated)
Variation: 12E (1985)
From city: 2 miles E of CREEDE, CO
Time zone: UTC -7 (UTC -6 during Daylight Saving Time)
Zip code: 81130

Airport Operations

Airport use: Open to the public
Activation date: 09/1942
Control tower: no
ARTCC: DENVER CENTER
FSS: DENVER FLIGHT SERVICE STATION
NOTAMs facility: DEN (NOTAM-D service available)
Attendance: UNATNDD
Wind indicator: yes
Segmented circle: no

Airport Communications

CTAF: 122.9

Nearby radio navigation aids

VOR radial/distance  VOR name  Freq  Var
HBUr158/38.2BLUE MESA VOR/DME114.9014E

Airport Services

Fuel available: 100LL JET-A
Parking: tiedowns
Airframe service: NONE
Powerplant service: NONE
Bottled oxygen: NONE
Bulk oxygen: NONE

Runway Information

Runway 7/25

Dimensions: 6880 x 60 ft. / 2097 x 18 m
Surface: asphalt, in fair condition
Weight bearing capacity: 
Single wheel: 12.5
RUNWAY 7  RUNWAY 25
Latitude: 37-49.261500N37-49.397833N
Longitude: 106-56.502667W106-55.083500W
Elevation: 8630.0 ft.
Traffic pattern: leftleft
Displaced threshold: 188 ft.no
Markings: basic, in fair conditionbasic, in fair condition

Airport Ownership and Management from official FAA records

Ownership: Publicly-owned
Owner: MINERAL COUNTY
BOX 70
CREEDE, CO 81130
Phone 719-658-2331
Manager: LES CAHILL-CO ADMINISTRATOR
BOX 70
CREEDE, CO 81130
Phone 719-658-2360
719-658-2600 CO SHERIFF 24 HRS.

Airport Operational Statistics

Aircraft based on the field: 10
Single engine airplanes: 10
    
Aircraft operations: avg 38/week *
75% transient general aviation
25% local general aviation
* for 12-month period ending 31 December 2017

Additional Remarks

A58-25 LARGE ROCKS 20' TO 200' FROM RUNWAY END.
MOUNTAINS IN ALL DIRECTIONS.
DEPARTURE TO NE AVOID OVERFLIGHT OF TRAILERS & RESIDENTIAL HOMES; CLIMB TO +200' AGL ON CNTRLN EXTDD PRIOR TO TURN.
GLIDER & HANG GLIDER ACTIVITY ON & INVOF ARPT.
ELK & DEER ON AND INVOF ARPT.
FOR CD CTC DENVER ARTCC AT 303-651-4257.

Instrument Procedures

There are no published instrument procedures at C24.

Some nearby airports with instrument procedures:

KRCV - Astronaut Kent Rominger Airport (28 nm E)
KPSO - Stevens Field Airport (33 nm S)
KGUC - Gunnison-Crested Butte Regional Airport (43 nm N)
KMVI - Monte Vista Municipal Airport (46 nm E)
KTEX - Telluride Regional Airport (47 nm W)
 
Loc | Ops | Rwys | IFR | FBO | Links
Com | Nav | Svcs | Stats | Notes

AirBoss

 
Area around C24 (Mineral County Memorial Airport)
 
Road maps at: MapQuest Bing Google
 
Aerial photo
WARNING: Photo may not be current or correct
Aerial photo of C24 (Mineral County Memorial Airport)
Do you have a better or more recent aerial photo of Mineral County Memorial Airport that you would like to share? If so, please send us your photo.

 
Sectional chart

 
Airport distance calculator
Flying to Mineral County Memorial Airport? Find the distance to fly.

From to C24

Sunrise and sunset
Times for 05-Dec-2020
 Local
(UTC-7)
 Zulu
(UTC)
Morning civil twilight06:4113:41
Sunrise07:1014:10
Sunset16:4823:48
Evening civil twilight17:1700:17

Current date and time
Zulu (UTC)  05-Dec-2020 07:13:53
Local (UTC-7)  05-Dec-2020 00:13:53
 
METAR
KCPW 
23nm S 
050655Z AUTO 35005KT 10SM CLR M06/M16 A3052 RMK AO2
KRCV 
28nm E 
050655Z AUTO 27014KT 10SM CLR M03/M13 A3041 RMK AO2 T10321128 401021063
KPSO 
33nm S 
050655Z AUTO 33003KT 10SM CLR M04/M12 A3038 RMK AO2 T10371119
K04V 
40nm NE 
050655Z AUTO 32015G19KT 10SM CLR M02/M13 A3040 RMK AO2
KGUC 
42nm N 
050656Z AUTO 00000KT 10SM CLR M13/M16 A3048 RMK AO2 SLP414 T11331161 FZRANO
TAF
KGUC 
42nm N 
050522Z 0506/0606 VRB03KT P6SM SKC
KTEX 
47nm W 
050522Z 0506/0606 13005KT P6SM SKC FM051500 VRB03KT P6SM SKC FM051900 27006KT P6SM SKC
NOTAMs
Click for the latest NOTAMs
NOTAMs are issued by the DoD/FAA and will open in a separate window not controlled by AirNav.

 

 
 

FBO, Fuel Providers, and Aircraft Ground Support

  
 Business Name 
 
 Contact 
 
 Services / Description 
 
Fuel Prices
 
Comments
  
Mineral County Memorial Airport 719-658-2360
no information available

If you are affiliated with Mineral County Memorial Airport and would like to show here your services, contact info, web link, logo, and more, click here
100LL Jet A
SS $4.00 $4.00 
 Updated 23-Oct-2020
 
   1 read write
SS=Self service
Update Fuel Prices
 

Would you like to see your business listed on this page?

 If your business provides an interesting product or service to pilots, flight crews, aircraft, or users of the Mineral County Memorial Airport, you should consider listing it here.  To start the listing process, click on the button below
 
Add a business
 

Other Pages about Mineral County Memorial Airport

www.colorado.gov/...
www.flycolorado.org/...
 
Update a link
 
Copyright © AirNav, LLC. All rights reserved. Privacy Policy  Contact